Voltar ao catálogo

CZ-6A DEB

AtivoSSO
NORAD 55900·DEBRIS·🇨🇳 China

Lançado Nov 11, 2022 de Taiyuan Satellite Launch Center

Loading…

Próximas Passagens (próximas 24 horas)

TLE

AtualizadoSource: Space-Track

Época: Sep 14, 2026, 11:26 UTC

1 55900U 22151AAY 26257.47703990  .00000924  00000-0  43834-3 0  9991
2 55900  98.7685 267.1782 0038000  77.9964 282.5468 14.21611222192313

Acompanhe CZ-6A DEB em tempo real com AllMySat

Download on the App Store